Location: Newark
(45.7667°N, 11.5167°E)
Time: 13:38:37
(UTC+00:00)

Envisat - Pass Details

Date: 31 January 2020
Orbit: 764 x 766 km, 98.1° (Epoch: 24 February)

Event Time Altitude Azimuth Distance (km) Brightness Sun altitude
Rises 17:04:41 0° 169° (S) 3,219 6.3 -8.5°
Reaches altitude 10° 17:06:59 10° 171° (S) 2,297 5.6 -8.9°
Maximum altitude 17:12:03 75° 257° (WSW) 796 3.3 -9.8°
Drops below altitude 10° 17:17:09 10° 343° (NNW) 2,314 5.5 -10.6°
Sets 17:19:29 0° 346° (NNW) 3,244 6.3 -11.0°
